Flag for Canada Weather past 2 weeks in Whitehorse, Yukon, Canada

Now
32 °F

Passing clouds.


Feels Like: 26 °F
Forecast: 33 / 41 °F
Wind: 6 mph from Southwest

Location: Withehorse

Current Time: Apr 28, 2015 at 1:08:36 AM

Latest Report: Apr 28, 2015 at 12:00 AM


Visibility: 15 mi

Pressure: 29.70 "Hg

Humidity: 60%

Dew point: 19 °F

Location of WhitehorseLocation

Historic Weather in Whitehorse — Graph

°F

Whitehorse temperature yesterday

Maximum temperature yesterday: 48 °F (at 3:00 PM)
Minimum temperature yesterday: 34 °F (at 6:00 AM)
Average temperature yesterday: 41 °F

Past Weeks' High & Low Weather Summary

 TemperatureHumidityPressure
High55 °F (Apr 20, 2:00 PM)75% (Apr 16, 6:00 AM)30.29 "Hg (Apr 16, 6:00 AM)
Low21 °F (Apr 13, 5:00 AM)16% (Apr 22, 5:00 PM)29.55 "Hg (Apr 13, 11:00 PM)
Average38 °F47%29.88 "Hg
* Reported Midnight between Apr 12 and Apr 13 — Midnight between Apr 27 and Apr 28, Whitehorse, Weather by CustomWeather, © 2015

Note: Actual official high and low records may vary slightly from our data, if they occured in-between our weather recording intervals... More about our weather records

Advertising

Whitehorse weather history for previous 24 hours

 ConditionsComfort  
Time TempWeatherWind HumidityBarometerVisibility
12:00 AM
Tue, Apr 28
32 °FPassing clouds.6 mph60%29.70 "Hg15 mi
11:00 PM
Mon, Apr 27
36 °FPassing clouds.5 mph48%29.73 "Hg40 mi
10:00 PM41 °FPassing clouds.10 mph39%29.73 "Hg40 mi
9:00 PM43 °FScattered clouds.13 mph36%29.73 "Hg40 mi
8:00 PM46 °FScattered showers. Broken clouds.15 mph29%29.74 "Hg40 mi
7:00 PM45 °FScattered showers. Broken clouds.12 mph29%29.75 "Hg40 mi
6:00 PM45 °FMore clouds than sun.14 mph29%29.77 "Hg40 mi
5:00 PM46 °FBroken clouds.14 mph27%29.78 "Hg40 mi
4:00 PM46 °FBroken clouds.18 mph27%29.78 "Hg40 mi
3:00 PM48 °FBroken clouds.17 mph27%29.78 "Hg40 mi
2:00 PM46 °FBroken clouds.17 mph32%29.79 "Hg40 mi
1:00 PM45 °FBroken clouds.15 mph34%29.80 "Hg40 mi
12:00 PM45 °FScattered clouds.15 mph34%29.80 "Hg40 mi
11:00 AM41 °FScattered clouds.10 mph39%29.80 "Hg40 mi
10:00 AM41 °FPassing clouds.13 mph45%29.79 "Hg40 mi
9:00 AM37 °FPassing clouds.6 mph56%29.80 "Hg40 mi
8:00 AM36 °FPassing clouds.14 mph60%29.79 "Hg40 mi
7:00 AM34 °FPassing clouds.12 mph70%29.78 "Hg40 mi
6:00 AM34 °FPassing clouds.10 mph70%29.78 "Hg40 mi
5:00 AM36 °FPassing clouds.13 mph65%29.77 "Hg15 mi
4:00 AM36 °FPassing clouds.9 mph70%29.74 "Hg15 mi
3:00 AM37 °FPassing clouds.9 mph65%29.73 "Hg15 mi
2:00 AM37 °FMostly cloudy.10 mph70%29.72 "Hg15 mi
1:00 AM39 °FPassing clouds.12 mph65%29.70 "Hg15 mi
Weather by CustomWeather, © 2015

See weather overviewHow to use our weather pages